Troy, MI

7:27 PM EDT on September 29, 2016 (GMT -0400)
Troy

Weather History for KVLL - January, 2014

Change the Weather History Date:

Saturday, January 18, 2014

  Actual Average (KDET) Record (KDET)
Temperature  
Mean Temperature 14 °F -  
Max Temperature 19 °F 31 °F 56 °F (1973)
Min Temperature 9 °F 19 °F -2 °F (1976)
Degree Days  
Heating Degree Days 51    
Moisture  
Dew Point 11 °F    
Average Humidity 79    
Maximum Humidity 86    
Minimum Humidity 74    
Precipitation  
Precipitation 0.00 in - - ()
Sea Level Pressure  
Sea Level Pressure 29.91 in    
Wind  
Wind Speed 8 mph (SW)    
Max Wind Speed 14 mph    
Max Gust Speed 21 mph    
Visibility 9 miles    
Events Snow    
Averages and records for this station are not official NWS values.
T = Trace of Precipitation, MM = Missing Value Source: NWS Daily Summary

Daily Weather History Graph

Daily Weather History Graph

Search for Another Location

Airport or City:

Trip Planner

Search our weather history database for the weather conditions in past years. The results will help you decide how hot, cold, wet, or windy it might be!

Date:

Astronomy

Jan. 18, 2014 Rise Set
Actual Time 7:58 AM EST 5:28 PM EST
Civil Twilight 7:27 AM EST 5:59 PM EST
Nautical Twilight 6:52 AM EST 6:34 PM EST
Astronomical Twilight 6:19 AM EST 7:07 PM EST
Moon 8:13 PM EST (1/18) 8:53 AM EST (1/18)
Length of Visible Light 10h 32m
Length of Day
9h 30m
Waning Gibbous, 94% of the Moon is Illuminated
Jan 18
Waning Gibbous
Jan 24
Last Quarter
Jan 30
New
Feb 6
First Quarter
Feb 14
Full

Hourly Weather History & Observations

Time (EST) Temp. Windchill Dew Point Humidity Pressure Visibility Wind Dir Wind Speed Gust Speed Precip Events Conditions
12:14 AM 19.4 °F 6.0 °F 12.2 °F 74% 29.90 in 10.0 mi West 13.8 mph 20.7 mph N/A   Overcast
12:33 AM 19.2 °F 7.7 °F 12.2 °F 74% 29.90 in 10.0 mi West 10.4 mph - N/A   Overcast
12:54 AM 19.0 °F 7.5 °F 12.2 °F 75% 29.90 in 10.0 mi West 10.4 mph 16.1 mph N/A Snow Light Snow
1:14 AM 18.9 °F 8.8 °F 12.6 °F 76% 29.90 in 10.0 mi West 8.1 mph - N/A Snow Light Snow
1:33 AM 18.5 °F 7.5 °F 12.4 °F 77% 29.89 in 7.0 mi West 9.2 mph - N/A   Overcast
1:55 AM 18.3 °F 10.2 °F 12.6 °F 78% 29.89 in 5.0 mi West 5.8 mph - N/A Snow Light Snow
2:14 AM 17.6 °F 7.3 °F 12.2 °F 79% 29.89 in 10.0 mi WSW 8.1 mph - N/A   Overcast
2:31 AM 17.1 °F 8.7 °F 11.5 °F 79% 29.90 in 10.0 mi WSW 5.8 mph - N/A   Mostly Cloudy
2:53 AM 16.5 °F 8.1 °F 11.1 °F 79% 29.90 in 10.0 mi WSW 5.8 mph - N/A   Scattered Clouds
3:14 AM 16.0 °F 6.3 °F 10.6 °F 79% 29.91 in 10.0 mi SW 6.9 mph - N/A   Scattered Clouds
3:30 AM 15.1 °F 5.2 °F 10.0 °F 80% 29.91 in 10.0 mi SW 6.9 mph - N/A   Clear
3:51 AM 14.2 °F 3.1 °F 9.0 °F 80% 29.92 in 10.0 mi SSW 8.1 mph - N/A   Clear
4:09 AM 13.5 °F 1.3 °F 7.9 °F 78% 29.92 in 10.0 mi SW 9.2 mph - N/A   Scattered Clouds
4:34 AM 12.9 °F 2.6 °F 7.5 °F 79% 29.92 in 10.0 mi WSW 6.9 mph - N/A   Scattered Clouds
4:49 AM 12.7 °F 5.0 °F 7.5 °F 80% 29.92 in 10.0 mi SW 4.6 mph - N/A   Mostly Cloudy
5:12 AM 12.7 °F 3.6 °F 7.7 °F 80% 29.92 in 10.0 mi SW 5.8 mph - N/A   Overcast
5:27 AM 12.7 °F 2.4 °F 7.7 °F 80% 29.92 in 10.0 mi SW 6.9 mph - N/A   Overcast
5:49 AM 12.2 °F 0.7 °F 7.5 °F 82% 29.92 in 10.0 mi SW 8.1 mph - N/A   Overcast
6:13 AM 12.0 °F 1.5 °F 7.2 °F 81% 29.92 in 10.0 mi SSW 6.9 mph - N/A   Overcast
6:34 AM 11.7 °F 3.7 °F 7.0 °F 81% 29.92 in 10.0 mi SSW 4.6 mph - N/A   Overcast
6:48 AM 11.7 °F 2.3 °F 7.3 °F 83% 29.92 in 10.0 mi SW 5.8 mph - N/A   Overcast
7:10 AM 11.3 °F -0.4 °F 7.0 °F 83% 29.92 in 10.0 mi SSW 8.1 mph - N/A   Overcast
7:23 AM 10.9 °F 0.2 °F 6.8 °F 83% 29.92 in 10.0 mi SSW 6.9 mph - N/A   Overcast
7:48 AM 10.4 °F -0.4 °F 6.4 °F 84% 29.92 in 10.0 mi SSW 6.9 mph - N/A   Overcast
8:05 AM 10.0 °F -1.9 °F 6.3 °F 85% 29.92 in 10.0 mi SSW 8.1 mph - N/A   Overcast
8:34 AM 9.9 °F -1.1 °F 6.3 °F 85% 29.92 in 10.0 mi SSW 6.9 mph - N/A   Overcast
8:52 AM 10.0 °F 0.4 °F 6.4 °F 85% 29.93 in 10.0 mi SSW 5.8 mph - N/A   Overcast
9:13 AM 10.2 °F 2.0 °F 6.6 °F 85% 29.94 in 10.0 mi SSW 4.6 mph - N/A Snow Light Snow
9:21 AM 10.4 °F 2.2 °F 6.8 °F 85% 29.94 in 7.0 mi SSW 4.6 mph - N/A Snow Light Snow
9:50 AM 10.8 °F 0.0 °F 6.8 °F 84% 29.95 in 5.0 mi SSW 6.9 mph - N/A Snow Light Snow
10:05 AM - - - N/A% 29.96 in 4.0 mi SSW 8.1 mph - N/A   Unknown
10:17 AM - - - N/A% 29.96 in 4.0 mi SSW 6.9 mph - N/A   Unknown
10:51 AM 12.7 °F 1.4 °F 8.2 °F 82% 29.96 in 7.0 mi SW 8.1 mph - N/A   Overcast
11:08 AM 13.1 °F 1.8 °F 8.6 °F 82% 29.96 in 7.0 mi SW 8.1 mph 17.3 mph N/A   Overcast
11:33 AM 14.0 °F 3.9 °F 9.3 °F 82% 29.95 in 5.0 mi SW 6.9 mph - N/A Snow Light Snow
11:54 AM 14.7 °F 3.8 °F 9.9 °F 81% 29.94 in 5.0 mi SSW 8.1 mph - N/A Snow Light Snow
12:11 PM 15.4 °F 4.6 °F 10.4 °F 80% 29.94 in 5.0 mi SSW 8.1 mph - N/A Snow Light Snow
12:33 PM 16.0 °F 6.3 °F 10.8 °F 80% 29.93 in 5.0 mi SSW 6.9 mph - N/A Snow Light Snow
12:53 PM 16.7 °F 5.3 °F 11.3 °F 79% 29.92 in 5.0 mi SW 9.2 mph - N/A Snow Light Snow
1:14 PM 16.7 °F 6.2 °F 11.1 °F 79% 29.91 in 5.0 mi SW 8.1 mph - N/A Snow Light Snow
1:34 PM 17.6 °F 7.3 °F 11.7 °F 78% 29.90 in 7.0 mi SSW 8.1 mph - N/A Snow Light Snow
1:55 PM 18.3 °F 10.2 °F 12.0 °F 76% 29.90 in 7.0 mi SSW 5.8 mph - N/A Snow Light Snow
2:14 PM 18.7 °F 9.5 °F 12.2 °F 76% 29.90 in 10.0 mi SSW 6.9 mph - N/A Snow Light Snow
2:35 PM 18.9 °F 8.8 °F 12.0 °F 75% 29.90 in 10.0 mi SW 8.1 mph - N/A   Overcast
2:54 PM 19.2 °F 8.4 °F 12.2 °F 74% 29.90 in 10.0 mi SSW 9.2 mph - N/A   Overcast
3:15 PM 18.5 °F 8.4 °F 12.9 °F 79% 29.90 in 2.5 mi SW 8.1 mph - N/A Snow Light Snow
3:34 PM 18.9 °F 8.8 °F 12.4 °F 76% 29.90 in 7.0 mi SSW 8.1 mph - N/A Snow Light Snow
3:54 PM 18.5 °F 8.4 °F 12.0 °F 76% 29.90 in 10.0 mi SSW 8.1 mph - N/A Snow Light Snow
4:14 PM 18.9 °F 10.8 °F 12.2 °F 75% 29.90 in 10.0 mi SSW 5.8 mph - N/A   Overcast
4:35 PM 19.2 °F 8.4 °F 12.2 °F 74% 29.90 in 10.0 mi SSW 9.2 mph - N/A   Overcast
4:54 PM 19.2 °F 11.3 °F 12.4 °F 75% 29.89 in 10.0 mi South 5.8 mph - N/A   Overcast
5:14 PM 19.2 °F 11.3 °F 12.6 °F 75% 29.89 in 10.0 mi SSW 5.8 mph - N/A   Overcast
5:34 PM 19.0 °F 9.0 °F 12.2 °F 75% 29.90 in 10.0 mi South 8.1 mph - N/A   Overcast
5:53 PM 18.9 °F 9.8 °F 12.2 °F 75% 29.90 in 10.0 mi South 6.9 mph - N/A   Overcast
6:11 PM 19.0 °F 8.2 °F 12.7 °F 76% 29.91 in 10.0 mi South 9.2 mph - N/A   Overcast
6:33 PM 18.5 °F 9.3 °F 12.6 °F 78% 29.91 in 10.0 mi South 6.9 mph - N/A   Overcast
6:53 PM 18.5 °F 10.4 °F 12.4 °F 77% 29.91 in 10.0 mi South 5.8 mph - N/A   Overcast
7:13 PM 18.3 °F 9.1 °F 12.2 °F 77% 29.91 in 10.0 mi SSW 6.9 mph - N/A   Overcast
7:33 PM 18.0 °F 6.9 °F 11.5 °F 76% 29.91 in 10.0 mi SW 9.2 mph - N/A   Overcast
7:54 PM 17.6 °F 8.2 °F 11.3 °F 76% 29.90 in 10.0 mi SSW 6.9 mph - N/A   Overcast
8:13 PM 17.4 °F 10.4 °F 11.3 °F 77% 29.90 in 10.0 mi SSW 4.6 mph - N/A   Overcast
8:34 PM 17.2 °F 6.8 °F 11.1 °F 77% 29.89 in 10.0 mi SSW 8.1 mph - N/A   Overcast
8:53 PM 17.1 °F 7.6 °F 11.1 °F 77% 29.89 in 10.0 mi SW 6.9 mph - N/A   Mostly Cloudy
9:13 PM 17.1 °F 10.0 °F 11.3 °F 78% 29.88 in 10.0 mi SW 4.6 mph - N/A   Overcast
9:33 PM 17.1 °F 10.0 °F 11.7 °F 79% 29.88 in 7.0 mi SW 4.6 mph - N/A   Overcast
9:53 PM 16.7 °F 11.2 °F 12.4 °F 83% 29.87 in 4.0 mi SW 3.5 mph - N/A Snow Light Snow
10:12 PM 16.7 °F - 12.9 °F 85% 29.87 in 4.0 mi Calm Calm - N/A Snow Light Snow
10:33 PM 16.7 °F 11.2 °F 13.1 °F 86% 29.86 in 7.0 mi WSW 3.5 mph - N/A Snow Light Snow
10:54 PM 16.7 °F 9.6 °F 13.1 °F 86% 29.85 in 10.0 mi SSW 4.6 mph - N/A   Overcast
11:14 PM 16.7 °F - 13.1 °F 86% 29.84 in 10.0 mi Calm Calm - N/A   Overcast
11:34 PM 16.7 °F - 13.1 °F 86% 29.83 in 10.0 mi Calm Calm - N/A   Overcast
11:53 PM 16.9 °F - 13.1 °F 85% 29.82 in 10.0 mi Calm Calm - N/A   Overcast